This is the latest recevied weather packets stored in our database for station/object N4YH-13. If no packets are shown the sender has not sent any weather packets the latest 10 day(s).
| Time | Temp. | Humidity | Pressure | Rain* | Wind** | Luminosity | Snow |
|---|---|---|---|---|---|---|---|
| 1777672804 | 17.22° C | 52% | 1010.8 hPa | 0 mm | - | - | - |
| 1777672684 | 17.22° C | 51% | 1010.8 hPa | 0 mm | - | - | - |
| 1777672563 | 17.22° C | 51% | 1010.8 hPa | 0 mm | - | - | - |
| 1777672444 | 17.22° C | 51% | 1010.8 hPa | 0 mm | - | - | - |
| 1777672324 | 17.22° C | 51% | 1010.7 hPa | 0 mm | - | - | - |
| 1777672204 | 17.22° C | 50% | 1010.8 hPa | 0 mm | - | - | - |
| 1777672083 | 17.78° C | 51% | 1010.9 hPa | 0 mm | - | - | - |
| 1777671963 | 17.78° C | 51% | 1011.1 hPa | 0 mm | - | - | - |
| 1777671845 | 17.78° C | 51% | 1011.2 hPa | 0 mm | - | - | - |
| 1777671724 | 17.78° C | 50% | 1011.2 hPa | 0 mm | - | - | - |
| 1777671603 | 17.78° C | 50% | 1011.2 hPa | 0 mm | - | - | - |
| 1777671484 | 17.78° C | 50% | 1011.2 hPa | 0 mm | - | - | - |
| 1777671364 | 17.78° C | 48% | 1011.2 hPa | 0 mm | - | - | - |
| 1777671244 | 17.78° C | 49% | 1011.1 hPa | 0 mm | - | - | - |
| 1777671123 | 17.78° C | 48% | 1011.1 hPa | 0 mm | - | - | - |
| 1777671004 | 17.78° C | 46% | 1011.1 hPa | 0 mm | - | - | - |
| 1777670884 | 17.78° C | 46% | 1011.1 hPa | 0 mm | - | - | - |
| 1777670763 | 17.78° C | 47% | 1011.1 hPa | 0 mm | - | - | - |
| 1777670643 | 18.33° C | 47% | 1011.1 hPa | 0 mm | - | - | - |
| 1777670524 | 18.33° C | 47% | 1011.1 hPa | 0 mm | - | - | - |
| 1777670404 | 18.33° C | 46% | 1011.1 hPa | 0 mm | - | - | - |
| 1777670283 | 18.33° C | 51% | 1011.1 hPa | 0 mm | - | - | - |
| 1777670164 | 17.78° C | 49% | 1011.2 hPa | 0 mm | - | - | - |
| 1777670044 | 17.78° C | 47% | 1011.2 hPa | 0 mm | - | - | - |
| 1777669923 | 17.78° C | 49% | 1011.3 hPa | 0 mm | - | - | - |
* Rain latest hour (hover to see other rain measurements)
** Current wind speed in m/s (hover to see current wind gust speed)